Temperature
21 20 20 20 26 28 28 28 28 28 27 26 25 25 26 25 25 23 20 19 19 19 19 19 19 19 19 19 19 19 19 19 19 18 18 19 19 19 19 18 18 18 18 18 18 18 18 18 18
20 20 20 24 29 28 27 28 28 27 26 25 25 25 25 24 22 21 20 19 19 19 19 19 19 19 19 19 19 19 19 19 18 19 19 19 19 18 18 18 18 18 18 18 18 18 18 18 18
20 20 23 28 29 28 27 28 27 27 26 26 25 25 24 22 21 20 19 19 19 19 19 19 19 19 19 19 19 19 19 19 19 18 18 18 18 18 18 18 18 18 18 18 18 18 18 18 18
20 22 26 29 28 28 28 28 28 27 26 25 26 25 22 21 21 20 19 19 19 19 19 19 19 19 19 19 19 19 19 19 18 18 18 18 18 18 18 18 18 18 18 18 18 18 18 18 18
22 26 29 29 28 28 29 28 27 28 27 26 26 25 22 20 20 19 19 19 19 19 19 18 19 19 19 19 19 19 19 18 18 18 18 18 18 18 18 18 18 18 18 18 18 18 18 18 18
26 29 29 28 28 28 28 27 27 27 26 26 25 25 22 20 20 19 19 19 19 19 19 18 19 19 19 19 19 19 18 18 18 18 18 18 18 18 18 18 18 18 18 18 18 18 18 18 18
27 30 29 29 28 28 28 28 28 28 27 26 25 25 22 20 20 19 19 19 19 19 19 19 18 18 19 19 19 18 18 18 18 18 18 18 18 18 18 18 18 18 18 18 18 18 18 18 18
26 30 30 30 29 28 28 28 27 27 27 25 25 25 23 20 20 19 19 19 19 19 19 19 19 18 18 18 18 18 18 18 18 18 18 18 18 18 18 18 18 18 18 18 18 18 18 18 18
26 30 30 30 29 29 28 28 27 26 26 25 24 24 22 20 20 20 20 19 19 19 19 19 19 18 18 18 18 18 18 18 18 18 18 18 18 17 18 18 18 18 18 18 18 18 18 18 18
29 30 30 30 30 30 29 28 28 27 26 25 24 22 21 20 20 20 20 20 20 19 19 19 19 19 18 18 18 18 18 18 18 18 18 18 18 18 18 18 18 18 18 18 18 18 18 18 18
30 30 30 30 29 29 29 28 28 28 28 26 24 22 21 21 21 21 21 21 20 19 19 19 19 18 18 18 18 18 18 18 18 18 18 18 18 18 18 18 18 18 18 18 18 18 18 18 18
30 30 30 30 29 29 29 29 28 28 27 25 24 23 22 21 21 21 21 21 20 19 19 19 18 18 18 18 18 18 18 18 18 18 18 18 18 18 18 18 18 18 18 18 18 18 18 18 18
30 30 29 29 29 29 28 28 28 27 26 25 24 23 22 22 22 21 21 20 20 19 19 19 18 18 18 18 18 18 18 18 18 18 18 18 18 18 18 18 18 18 18 18 18 18 18 18 18
30 30 30 30 30 29 29 28 28 26 25 24 24 23 23 22 22 21 21 20 20 19 19 19 18 18 18 18 18 18 18 18 18 18 18 18 18 18 18 18 18 18 18 18 18 18 18 18 18
30 31 31 31 30 30 30 29 28 26 25 24 24 23 22 22 22 21 21 20 20 19 19 19 19 18 18 18 18 18 18 18 18 18 18 18 18 18 18 18 18 18 18 18 18 18 18 18 18
32 32 31 31 31 30 30 29 27 25 25 25 24 23 22 22 21 21 20 20 19 19 19 19 19 18 18 18 18 18 18 18 18 18 18 18 18 18 18 18 18 18 18 18 18 18 18 18 18
32 32 31 31 31 31 30 29 28 26 26 25 24 23 23 22 21 21 20 20 19 19 19 19 19 18 18 18 18 18 18 18 18 17 18 18 18 18 18 18 18 18 17 17 18 18 18 18 18
31 32 31 31 31 30 30 29 28 26 26 25 24 24 23 22 22 21 20 20 19 19 19 19 19 19 18 18 18 18 18 18 18 18 17 17 18 18 18 18 18 17 17 17 18 18 18 18 18
32 32 31 31 31 31 30 29 28 27 26 26 25 24 23 23 22 21 20 20 19 19 19 19 19 19 19 18 18 18 18 18 18 18 18 18 18 18 18 17 17 17 17 17 17 17 17 18 18
31 31 31 31 30 30 30 29 29 28 27 26 25 25 24 23 22 21 20 20 19 19 19 19 19 19 19 18 18 18 18 18 18 18 18 18 18 18 17 18 17 17 18 18 17 18 17 18 18
31 31 31 31 30 30 30 29 29 28 27 26 25 25 24 23 22 21 20 20 19 19 19 19 19 19 19 18 18 17 17 18 17 17 18 18 18 18 18 18 18 18 17 18 18 17 17 17 17
31 32 31 31 31 31 31 30 29 29 28 27 26 25 24 23 23 21 21 20 20 19 19 19 19 19 19 18 18 18 18 18 18 18 18 18 18 18 18 18 18 18 17 18 17 18 17 17 18
31 31 31 31 31 31 31 31 30 29 29 29 27 26 25 24 23 21 21 20 20 20 19 19 19 19 19 18 18 18 18 18 17 17 17 18 18 18 18 18 18 18 18 18 17 17 17 17 17
31 31 31 31 31 30 30 30 30 30 29 29 28 26 25 24 23 21 21 20 20 20 19 19 19 19 19 18 18 18 18 18 17 17 17 17 17 18 18 18 18 18 18 18 18 17 17 17 17
31 31 30 30 30 30 30 30 30 30 29 29 28 26 25 24 23 22 21 20 20 20 19 19 19 19 19 18 18 18 18 18 18 18 17 17 18 18 18 18 18 18 18 18 18 18 17 17 17
31 31 30 29 30 30 29 30 30 29 28 28 27 26 25 24 23 22 21 21 20 20 19 19 18 18 18 18 18 18 18 17 18 18 17 17 17 18 18 17 17 18 18 17 17 17 17 17 17
31 31 32 31 30 30 30 30 30 29 28 28 27 26 25 24 23 22 21 21 20 20 19 19 18 18 18 18 18 18 18 18 17 17 17 17 17 17 17 17 17 17 17 17 17 17 17 17 17
31 31 31 30 29 29 30 30 30 29 28 28 27 26 25 24 23 22 21 21 20 20 19 19 18 18 18 18 18 18 18 17 17 17 17 17 17 17 17 17 17 17 17 17 17 17 17 17 17
30 30 30 30 30 29 29 30 30 29 28 28 27 26 24 23 23 22 21 20 20 20 20 19 19 18 18 18 18 17 17 17 17 17 17 17 17 17 17 17 17 17 17 17 17 17 17 17 17
30 30 30 29 29 29 29 29 29 28 28 27 26 25 24 23 22 21 20 20 20 19 19 19 18 18 18 18 18 17 17 17 17 17 17 17 17 17 17 17 17 17 17 17 17 16 16 16 16
Wind_Speed
11 9 5 4 4 4 10 8 7 7 6 8 8 6 7 8 6 7 6 7 7 8 10 11 10 10 11 11 12 13 13 14 13 13 12 13 13 12 13 12 12 11 11 11 11 11 12 11 11
8 6 5 4 1 8 10 7 8 9 7 6 7 7 8 9 8 7 6 7 7 8 10 11 11 11 12 12 12 12 13 13 13 12 12 12 12 12 12 11 11 10 10 10 10 10 10 11 10
7 6 4 1 7 9 8 8 8 8 6 4 5 6 6 6 6 6 8 8 8 9 10 13 11 12 12 12 12 12 12 12 12 12 12 11 11 11 11 10 10 9 9 9 9 9 9 9 9
4 4 2 3 10 9 7 6 6 6 6 5 5 7 6 6 4 7 10 9 9 10 11 13 11 12 12 11 11 11 11 11 11 11 11 11 10 10 10 9 9 9 9 8 8 9 9 8 8
4 2 3 8 10 8 7 5 5 5 5 6 5 8 7 7 9 10 10 9 9 10 10 13 11 11 11 11 11 10 10 10 10 10 10 10 9 8 8 8 8 8 8 8 7 7 7 7 7
3 1 5 9 9 7 6 5 5 7 8 7 7 8 7 7 9 9 9 8 8 9 10 12 12 10 10 10 10 10 9 9 9 9 9 9 8 8 7 7 7 7 7 7 7 7 7 6 6
2 3 7 8 8 8 6 5 5 6 7 6 5 7 7 8 9 9 9 8 8 8 8 9 10 10 10 9 9 9 9 9 8 9 8 8 7 6 6 6 6 6 6 6 6 6 6 6 5
2 1 7 8 8 8 6 5 5 5 7 6 3 5 8 10 9 9 9 8 8 7 7 7 7 7 8 9 9 8 8 8 8 8 7 7 7 7 6 6 5 5 5 5 6 5 5 5 5
2 2 8 8 7 6 5 5 5 5 7 6 6 7 11 14 11 10 9 8 7 7 6 6 6 6 6 7 9 8 8 8 8 8 7 5 4 5 6 6 5 5 4 5 5 5 5 5 7
1 5 9 6 6 5 5 4 5 6 7 7 8 10 13 13 11 10 9 8 8 7 6 5 5 5 6 5 6 5 6 6 5 5 5 4 3 3 4 7 5 4 4 5 5 5 7 7 6
3 5 6 5 5 4 5 5 4 4 5 5 9 13 13 12 10 9 8 7 7 7 6 5 5 5 5 5 4 4 4 5 4 4 4 3 2 3 3 4 5 5 5 4 6 6 4 2 1
3 3 3 4 3 4 5 6 5 4 6 6 9 13 13 12 10 8 8 7 7 7 7 6 5 5 4 4 4 4 4 3 3 4 2 2 1 1 2 1 2 2 2 1 1 2 2 2 2
3 4 4 4 4 5 6 6 6 6 6 9 11 12 12 10 9 8 7 7 7 7 7 7 6 5 5 4 3 3 3 3 3 3 3 1 1 1 1 1 1 1 1 2 2 1 2 2 3
3 2 2 3 5 5 6 5 4 6 7 10 11 11 10 9 9 8 8 7 7 7 6 7 7 6 5 4 3 3 3 3 3 2 3 1 1 1 1 1 0 1 1 0 1 1 2 2 1
2 2 4 4 3 4 5 5 5 6 8 9 10 9 8 7 7 8 8 7 7 7 6 6 7 6 5 4 3 3 3 3 2 2 2 1 1 1 0 0 1 1 1 1 1 1 2 2 2
5 4 2 4 2 2 4 4 6 7 8 8 8 8 7 7 7 7 7 7 7 7 7 6 6 6 6 4 3 3 3 3 2 1 2 1 1 1 1 0 0 0 1 1 1 2 1 1 1
5 1 3 4 2 2 1 4 7 6 7 7 7 7 6 6 7 7 7 7 7 7 7 6 6 6 5 4 4 3 3 2 2 2 2 2 2 2 2 1 0 1 1 1 2 0 2 1 1
1 1 1 2 3 2 2 4 6 6 6 6 6 6 6 6 7 7 8 7 7 7 6 6 6 6 5 5 4 3 3 3 2 2 2 2 3 3 3 2 1 2 1 1 1 1 1 1 2
3 3 2 1 2 1 2 3 4 6 6 5 6 5 5 5 6 7 8 8 8 8 7 7 7 6 5 4 4 4 4 3 3 3 3 4 4 4 4 3 2 2 2 2 2 2 2 1 1
5 5 3 3 3 1 1 2 3 5 6 5 5 6 5 5 6 7 7 8 8 9 9 8 8 7 6 5 4 3 3 3 3 3 3 4 4 4 4 4 3 2 2 2 2 2 2 2 2
6 6 4 3 3 5 3 4 5 5 5 5 5 5 5 5 6 7 8 8 8 9 9 8 8 7 7 6 5 3 3 3 3 3 3 4 4 4 4 4 4 3 3 2 2 3 3 2 2
6 4 5 6 7 4 5 3 4 5 5 6 6 6 6 6 6 7 8 8 9 8 8 8 8 8 7 7 6 5 5 4 3 3 3 3 4 5 5 5 4 4 4 3 4 3 3 4 3
4 3 5 7 7 7 5 6 2 5 4 5 5 6 6 6 6 7 8 9 8 8 8 8 8 8 8 8 7 6 5 4 3 3 3 4 4 4 5 5 5 5 5 5 5 4 4 4 4
3 4 5 7 8 8 5 7 2 2 2 1 3 4 5 6 6 7 7 8 8 8 8 8 7 7 7 7 7 7 6 5 5 4 4 4 3 4 5 5 5 5 5 5 5 5 5 5 4
7 7 6 6 7 5 2 6 2 2 1 1 1 3 4 6 7 7 8 8 8 8 8 8 8 7 7 7 6 6 7 7 7 6 5 5 4 4 4 4 5 5 5 5 5 5 5 5 5
9 9 7 6 6 3 4 4 1 3 1 0 1 2 3 5 6 6 7 7 7 8 8 8 8 7 7 7 7 6 6 6 5 6 5 4 4 4 4 4 5 5 6 5 5 5 6 5 5
8 9 9 9 9 8 4 3 3 3 2 1 1 1 2 3 4 5 6 7 7 7 8 8 8 7 7 7 7 6 6 6 5 5 5 5 4 4 4 5 5 5 5 5 6 5 5 5 5
6 7 7 9 8 9 7 7 3 3 2 1 1 1 1 1 3 4 5 5 6 6 7 7 7 7 7 7 6 5 6 6 5 5 5 5 5 4 4 5 5 5 5 5 5 5 5 6 6
7 7 7 8 9 10 9 3 2 1 1 2 1 0 1 0 1 3 4 4 4 5 6 7 7 7 7 7 6 6 5 5 5 5 5 5 5 5 5 5 4 4 5 5 5 6 6 6 6
7 8 9 9 8 9 10 3 4 1 0 0 0 1 1 1 1 3 4 4 4 4 5 6 6 6 7 6 6 6 5 5 5 5 5 6 5 5 5 5 5 5 5 5 5 6 6 6 6
Wind_Direction
181 183 202 230 221 92 69 63 62 68 70 64 63 64 63 48 41 78 95 101 100 107 112 115 110 111 112 113 115 115 118 120 123 124 124 123 121 121 122 123 128 129 131 132 131 132 131 130 131
176 183 222 240 54 82 73 67 70 67 84 94 79 71 71 65 61 93 108 106 110 110 114 110 110 111 113 113 113 113 115 119 120 122 122 122 123 124 126 124 128 131 133 134 134 137 136 136 135
180 216 257 292 57 64 74 71 80 85 86 85 84 61 55 69 82 96 106 120 117 111 111 108 111 109 111 113 115 114 116 119 120 119 120 122 123 123 125 126 129 131 131 134 132 137 140 139 136
203 224 235 67 71 64 72 82 95 103 89 75 92 86 77 62 83 106 117 122 117 115 114 110 112 110 112 114 116 116 117 118 119 119 118 119 119 120 123 126 127 126 125 127 129 132 139 140 138
232 251 94 79 71 70 74 81 90 88 81 86 91 93 88 78 97 112 119 117 115 115 113 113 112 109 111 113 114 116 117 117 115 119 121 118 117 117 116 119 124 126 127 128 131 136 140 143 147
241 239 71 72 73 78 82 91 97 89 93 96 100 100 90 108 115 116 115 115 111 114 113 115 121 116 115 116 115 114 112 112 111 114 117 119 119 118 120 121 126 130 131 137 139 142 147 149 153
329 51 68 74 80 83 80 86 83 92 95 92 102 99 112 121 121 122 119 116 110 111 113 117 123 126 128 121 116 113 111 110 110 111 113 117 119 119 122 124 131 134 137 144 145 149 152 151 153
308 45 78 78 78 79 91 96 79 79 90 102 105 106 127 135 134 129 123 119 114 113 116 117 118 121 126 125 122 116 112 111 114 113 114 124 132 128 127 131 130 138 142 138 135 140 146 153 155
266 74 67 63 68 83 106 106 95 91 103 100 82 84 118 134 139 137 132 129 127 123 124 122 119 117 117 121 126 131 130 128 135 128 130 144 134 131 139 107 109 124 136 136 140 144 157 173 170
10 62 59 55 63 86 105 104 119 125 117 112 108 108 124 139 146 146 142 141 139 134 130 128 123 119 120 115 118 124 124 122 122 114 120 120 113 124 120 126 134 135 140 149 151 165 190 209 177
51 60 58 68 73 85 105 109 121 127 111 123 137 139 143 149 155 153 148 147 141 139 136 134 129 122 114 108 108 107 104 106 114 112 116 118 128 132 130 143 148 153 170 164 161 193 197 184 157
86 59 49 67 72 91 96 100 101 81 78 108 134 145 150 157 159 157 154 151 146 145 145 143 136 124 112 105 105 109 102 98 94 99 98 105 110 112 108 120 125 150 143 147 186 177 164 177 211
88 61 58 81 97 102 105 99 94 89 99 118 131 145 153 157 156 155 153 152 153 155 156 152 144 134 132 124 121 112 105 98 97 92 86 74 103 79 85 101 108 132 135 166 182 183 173 190 204
67 89 100 111 108 119 114 103 107 99 117 128 139 149 155 159 160 158 161 164 164 165 165 158 157 151 150 147 138 129 123 124 110 105 87 67 86 78 58 125 128 132 150 130 204 189 188 201 194
172 153 132 111 117 138 142 100 95 123 135 138 145 151 155 161 165 169 170 172 172 171 169 165 165 158 158 159 159 148 151 145 133 125 115 120 111 115 269 134 182 108 144 173 208 211 207 211 205
206 205 127 100 111 168 228 91 103 140 150 146 150 157 162 169 176 176 175 177 173 171 169 171 174 168 167 169 173 168 169 164 166 160 159 180 184 225 260 261 131 105 230 224 215 235 228 233 237
210 204 89 108 99 161 214 96 117 148 157 153 159 165 170 173 183 183 183 181 174 171 172 173 178 176 176 174 179 184 182 189 202 208 209 197 222 226 246 258 297 247 249 269 272 249 272 252 261
244 267 127 93 102 149 145 118 133 156 164 161 166 170 174 179 184 185 183 180 174 171 172 174 179 180 182 181 185 194 201 207 222 227 223 232 230 229 242 233 235 258 259 263 278 272 268 273 270
297 286 264 109 122 159 138 146 154 164 178 177 182 185 186 191 179 176 180 178 175 174 178 181 184 181 187 193 196 197 201 210 214 224 215 231 241 234 240 258 234 251 257 264 261 251 221 236 272
251 259 237 163 137 209 162 167 163 178 190 193 194 194 194 187 174 173 175 176 181 181 185 188 190 188 192 196 206 212 218 221 221 233 220 233 238 239 235 244 253 246 255 246 248 248 254 260 264
248 262 260 236 193 196 215 207 179 181 190 195 203 202 194 187 182 182 184 185 185 187 193 194 194 190 195 198 202 206 212 230 225 228 229 233 240 241 249 247 251 251 256 250 243 241 241 253 254
251 271 252 230 239 245 253 272 169 183 195 207 207 206 203 193 188 188 190 191 192 193 193 195 194 194 195 199 208 212 218 222 226 235 237 233 234 241 241 241 245 254 257 254 251 243 249 250 254
272 277 238 240 252 262 249 271 179 179 215 219 211 207 206 200 195 192 194 194 194 192 190 190 190 195 199 205 209 219 229 229 225 228 231 241 234 234 240 239 242 245 251 253 260 262 255 251 258
212 212 214 232 245 252 261 271 253 182 246 224 191 199 202 198 194 193 191 190 192 192 191 190 189 197 200 206 213 220 228 233 233 234 236 238 239 234 232 236 239 243 249 249 250 251 244 251 260
216 240 239 236 239 246 216 258 272 59 33 285 215 194 192 193 193 193 191 191 192 193 194 196 193 200 203 206 215 222 226 228 231 238 236 245 250 244 239 244 242 245 242 247 252 248 255 248 247
224 245 259 267 271 259 199 248 138 95 93 167 186 180 182 187 192 195 194 193 196 196 196 197 197 200 202 207 215 220 225 229 234 235 244 241 254 259 260 252 249 248 247 248 246 249 248 246 245
226 238 257 266 272 274 246 231 182 155 182 169 146 153 171 180 189 190 188 191 195 195 197 200 199 202 204 207 213 216 221 229 235 239 242 246 251 254 248 251 254 254 253 253 253 252 253 250 250
249 243 245 255 262 268 255 240 232 186 204 188 176 142 94 144 171 175 179 187 192 195 194 197 199 202 205 207 214 215 221 229 234 240 244 248 251 255 257 256 256 258 257 253 252 252 249 249 248
214 226 243 251 258 267 272 252 80 170 233 241 231 190 79 93 156 167 169 176 184 192 192 195 199 201 204 207 212 221 221 226 231 236 243 248 252 252 254 255 256 258 261 261 253 254 252 251 252
231 234 237 246 249 256 270 263 89 75 38 292 167 96 65 63 122 154 156 158 173 187 191 194 201 202 206 207 210 217 225 228 232 235 241 245 248 248 245 249 253 257 257 257 255 258 255 253 253
Height
1502 1503 1504 1506 1500 1495 1498 1497 1494 1496 1499 1503 1504 1503 1504 1506 1508 1518 1520 1519 1519 1519 1519 1519 1519 1519 1520 1521 1521 1522 1523 1524 1526 1527 1528 1529 1530 1530 1531 1532 1534 1535 1537 1538 1539 1540 1541 1543 1544
1504 1504 1506 1504 1493 1499 1503 1498 1498 1500 1504 1506 1506 1506 1507 1511 1515 1518 1519 1520 1521 1521 1521 1521 1521 1521 1522 1523 1524 1525 1526 1527 1528 1529 1530 1531 1532 1533 1533 1535 1535 1536 1538 1539 1540 1541 1542 1544 1545
1505 1505 1506 1496 1494 1500 1504 1500 1501 1504 1506 1506 1507 1509 1511 1515 1518 1519 1521 1521 1523 1523 1523 1523 1523 1524 1524 1525 1526 1527 1528 1529 1530 1531 1532 1533 1534 1535 1535 1536 1537 1538 1539 1540 1541 1542 1543 1545 1546
1507 1507 1503 1496 1499 1499 1499 1500 1502 1504 1507 1508 1508 1511 1516 1520 1521 1522 1522 1523 1524 1525 1526 1525 1525 1526 1527 1528 1529 1529 1530 1531 1532 1533 1534 1535 1536 1536 1537 1537 1538 1539 1540 1542 1543 1543 1545 1546 1547
1507 1504 1497 1498 1500 1500 1500 1502 1503 1504 1506 1509 1510 1513 1519 1522 1522 1523 1524 1525 1526 1527 1528 1527 1527 1528 1529 1530 1531 1532 1533 1533 1534 1535 1536 1536 1537 1538 1538 1539 1539 1541 1542 1543 1544 1545 1546 1547 1549
1506 1499 1498 1503 1503 1501 1502 1504 1505 1506 1508 1511 1512 1514 1521 1524 1524 1525 1526 1527 1528 1529 1530 1529 1530 1530 1531 1532 1533 1534 1534 1535 1536 1537 1537 1538 1539 1539 1540 1540 1541 1542 1543 1544 1545 1546 1547 1548 1549
1505 1497 1500 1501 1502 1502 1504 1505 1505 1507 1509 1512 1514 1515 1521 1525 1526 1527 1528 1529 1530 1531 1531 1532 1533 1533 1533 1534 1535 1536 1536 1537 1537 1538 1539 1539 1540 1540 1541 1542 1543 1543 1544 1545 1546 1547 1547 1549 1550
1505 1499 1497 1498 1501 1504 1505 1506 1508 1509 1511 1515 1516 1516 1521 1525 1526 1528 1529 1530 1531 1532 1533 1534 1535 1536 1536 1536 1536 1537 1538 1538 1539 1539 1540 1541 1541 1542 1542 1543 1544 1544 1545 1546 1547 1548 1548 1549 1550
1506 1499 1500 1499 1501 1503 1505 1507 1510 1512 1513 1516 1517 1519 1522 1525 1527 1529 1530 1531 1532 1533 1534 1535 1536 1537 1538 1538 1538 1539 1539 1540 1541 1541 1541 1542 1544 1544 1545 1545 1545 1545 1546 1547 1548 1548 1549 1550 1551
1503 1500 1501 1500 1501 1502 1505 1507 1509 1511 1514 1517 1519 1522 1524 1526 1528 1529 1531 1532 1533 1534 1535 1536 1537 1538 1539 1540 1540 1541 1542 1542 1542 1543 1543 1544 1544 1545 1546 1546 1546 1546 1547 1548 1548 1549 1550 1551 1552
1503 1501 1501 1502 1503 1504 1505 1507 1509 1509 1511 1515 1519 1522 1524 1527 1528 1530 1531 1533 1534 1535 1536 1537 1538 1539 1540 1541 1541 1542 1543 1543 1543 1544 1544 1545 1545 1546 1547 1547 1547 1547 1548 1549 1549 1550 1552 1552 1552
1503 1503 1503 1504 1505 1505 1506 1508 1510 1511 1514 1517 1519 1522 1525 1527 1528 1530 1532 1533 1535 1535 1537 1538 1539 1539 1540 1541 1542 1543 1544 1544 1545 1544 1545 1545 1546 1546 1547 1547 1548 1548 1549 1549 1550 1550 1551 1551 1551
1503 1504 1504 1505 1506 1507 1508 1509 1511 1514 1517 1518 1520 1523 1526 1527 1529 1531 1532 1534 1535 1536 1537 1538 1539 1539 1540 1541 1543 1544 1544 1545 1545 1545 1545 1546 1546 1547 1547 1547 1547 1548 1549 1549 1549 1550 1550 1550 1551
1504 1504 1504 1504 1505 1507 1508 1510 1512 1516 1518 1520 1522 1524 1526 1528 1530 1531 1533 1534 1535 1536 1537 1538 1539 1540 1541 1542 1543 1544 1545 1545 1546 1546 1546 1546 1547 1547 1547 1548 1547 1548 1549 1549 1549 1550 1550 1550 1550
1505 1503 1502 1503 1504 1506 1506 1510 1513 1517 1519 1521 1523 1525 1527 1528 1530 1531 1533 1534 1535 1536 1537 1538 1539 1540 1540 1542 1543 1544 1545 1545 1546 1546 1546 1546 1547 1547 1547 1548 1548 1548 1548 1548 1548 1549 1549 1549 1550
1500 1499 1501 1503 1503 1505 1506 1512 1514 1517 1519 1520 1522 1525 1526 1528 1530 1531 1532 1534 1535 1536 1537 1538 1539 1540 1540 1541 1542 1544 1544 1545 1545 1546 1546 1546 1547 1547 1547 1547 1548 1547 1548 1548 1548 1548 1549 1549 1549
1497 1500 1502 1503 1503 1503 1503 1509 1514 1517 1518 1520 1522 1524 1526 1527 1529 1530 1531 1533 1534 1535 1536 1537 1538 1539 1540 1541 1542 1543 1544 1544 1545 1545 1546 1546 1546 1547 1547 1547 1547 1547 1547 1548 1548 1548 1548 1548 1548
1503 1500 1502 1503 1502 1502 1504 1508 1512 1516 1517 1519 1521 1523 1524 1526 1527 1529 1530 1532 1533 1534 1535 1536 1537 1538 1539 1540 1541 1542 1543 1544 1544 1545 1545 1545 1546 1546 1546 1547 1546 1547 1547 1547 1547 1546 1547 1547 1547
1498 1500 1502 1502 1501 1502 1505 1507 1510 1514 1515 1517 1519 1521 1523 1524 1526 1528 1529 1530 1532 1532 1533 1535 1536 1537 1538 1539 1540 1542 1543 1543 1544 1544 1544 1545 1545 1545 1545 1546 1546 1545 1546 1545 1546 1546 1546 1546 1546
1499 1502 1501 1500 1501 1503 1504 1506 1507 1511 1513 1515 1517 1519 1521 1523 1524 1526 1527 1529 1530 1531 1532 1533 1534 1536 1537 1538 1539 1541 1542 1542 1543 1543 1543 1543 1544 1544 1545 1544 1545 1545 1544 1544 1544 1544 1545 1545 1545
1498 1499 1499 1501 1501 1500 1503 1506 1506 1508 1511 1514 1515 1517 1518 1520 1522 1524 1525 1527 1528 1529 1530 1531 1532 1534 1535 1537 1539 1540 1540 1541 1542 1542 1542 1542 1542 1542 1542 1543 1543 1543 1543 1544 1543 1543 1543 1544 1544
1500 1494 1497 1500 1501 1499 1501 1508 1504 1503 1506 1509 1512 1514 1516 1518 1520 1522 1523 1525 1526 1527 1528 1530 1531 1532 1534 1535 1537 1538 1539 1539 1540 1540 1540 1540 1540 1540 1541 1541 1541 1541 1542 1542 1542 1542 1542 1542 1542
1496 1495 1496 1497 1498 1500 1498 1503 1501 1500 1503 1504 1507 1511 1513 1515 1517 1519 1520 1522 1524 1525 1527 1528 1529 1530 1532 1533 1535 1535 1537 1537 1538 1538 1538 1538 1538 1538 1538 1539 1539 1539 1540 1540 1540 1540 1540 1540 1540
1495 1496 1496 1495 1495 1509 1502 1504 1504 1495 1499 1500 1504 1508 1511 1513 1515 1517 1519 1520 1522 1524 1525 1526 1527 1528 1530 1531 1532 1533 1534 1534 1535 1536 1536 1536 1537 1536 1536 1536 1536 1537 1537 1537 1537 1537 1537 1537 1537
1495 1500 1507 1510 1508 1506 1498 1502 1501 1495 1497 1500 1502 1505 1508 1511 1513 1514 1516 1518 1519 1521 1522 1524 1525 1526 1527 1529 1530 1530 1531 1532 1532 1533 1534 1534 1534 1534 1534 1534 1534 1534 1534 1534 1535 1535 1535 1535 1534
1493 1495 1509 1518 1513 1502 1500 1501 1496 1495 1498 1500 1502 1504 1507 1508 1510 1512 1513 1515 1517 1518 1520 1521 1522 1523 1525 1526 1527 1528 1529 1529 1530 1530 1531 1531 1531 1532 1532 1531 1531 1531 1531 1532 1532 1532 1532 1532 1531
1493 1492 1488 1496 1501 1504 1497 1496 1493 1495 1497 1499 1501 1503 1505 1506 1508 1510 1511 1513 1514 1516 1517 1518 1520 1521 1522 1523 1524 1525 1526 1526 1527 1527 1527 1528 1528 1529 1528 1528 1528 1529 1529 1529 1529 1529 1529 1529 1529
1488 1488 1491 1496 1512 1514 1502 1498 1495 1495 1496 1497 1500 1502 1504 1505 1507 1508 1509 1511 1512 1513 1514 1516 1517 1518 1519 1521 1522 1522 1522 1523 1523 1524 1524 1524 1524 1525 1525 1525 1525 1526 1525 1525 1525 1525 1526 1526 1525
1492 1492 1492 1492 1495 1507 1509 1500 1488 1492 1495 1497 1499 1501 1503 1504 1505 1506 1507 1509 1510 1511 1512 1513 1514 1515 1517 1518 1518 1519 1519 1520 1520 1520 1520 1521 1521 1521 1521 1522 1522 1522 1522 1522 1522 1522 1522 1522 1522
1486 1488 1491 1499 1501 1497 1500 1499 1487 1492 1494 1497 1498 1501 1503 1504 1504 1505 1506 1507 1508 1509 1510 1511 1512 1513 1514 1515 1516 1516 1517 1517 1517 1517 1517 1518 1518 1518 1518 1518 1519 1519 1519 1519 1518 1518 1519 1519 1518